• In Netherlands
  • List of Countries
  • For 7 days
  • Water Temperature
  • Satellite Maps
  • Weather Map
  • Weather Widgets
  • user-avatar
    Login

    Hourly Weather Wiktoria

    Today, 23 July, Sunday

    Time Temperature Precipitation Wind Pressure Humidity
    00:00 +7°C° 0 mm 5 mps 750 mmHg 52%
    01:00 +6°C° 0 mm 4 mps 750 mmHg 54%
    02:00 +6°C° 0 mm 4 mps 750 mmHg 55%
    03:00 +5°C° 0 mm 4 mps 750 mmHg 57%
    04:00 +4°C° 0 mm 3 mps 750 mmHg 59%
    05:00 +4°C° 0 mm 3 mps 749 mmHg 60%
    06:00 +3°C° 0 mm 3 mps 749 mmHg 62%
    07:00 +3°C° 0 mm 3 mps 749 mmHg 64%
    08:00 +4°C° 0 mm 3 mps 749 mmHg 63%
    09:00 +7°C° 0 mm 3 mps 749 mmHg 62%
    10:00 +9°C° 0 mm 3 mps 750 mmHg 61%
    11:00 +10°C° 0 mm 3 mps 749 mmHg 63%
    12:00 +12°C° 0 mm 3 mps 749 mmHg 64%
    13:00 +13°C° 0 mm 3 mps 748 mmHg 66%
    14:00 +13°C° 0.3 mm 3 mps 748 mmHg 71%
    15:00 +13°C° 0.3 mm 3 mps 748 mmHg 75%
    16:00 +13°C° 0.3 mm 3 mps 748 mmHg 80%
    17:00 +12°C° 0.7 mm 3 mps 748 mmHg 84%
    18:00 +11°C° 0.7 mm 3 mps 749 mmHg 89%
    19:00 +9°C° 0.7 mm 3 mps 749 mmHg 93%
    20:00 +9°C° 0 mm 3 mps 750 mmHg 94%
    21:00 +8°C° 0 mm 2 mps 750 mmHg 95%
    22:00 +7°C° 0 mm 2 mps 750 mmHg 96%
    23:00 +7°C° 0 mm 2 mps 751 mmHg 96%

    Tomorrow, 24 July, Monday

    Time Temperature Precipitation Wind Pressure Humidity
    00:00 +6°C° 0 mm 2 mps 751 mmHg 96%
    01:00 +6°C° 0 mm 2 mps 751 mmHg 96%
    02:00 +6°C° 0 mm 1 mps 751 mmHg 96%
    03:00 +6°C° 0 mm 1 mps 751 mmHg 97%
    04:00 +6°C° 0 mm 1 mps 751 mmHg 97%
    05:00 +6°C° 0 mm 1 mps 752 mmHg 97%
    06:00 +6°C° 0 mm 1 mps 752 mmHg 97%
    07:00 +5°C° 0 mm 1 mps 753 mmHg 97%
    08:00 +7°C° 0 mm 1 mps 753 mmHg 95%
    09:00 +8°C° 0 mm 1 mps 754 mmHg 92%
    10:00 +10°C° 0 mm 1 mps 754 mmHg 90%
    11:00 +10°C° 0 mm 2 mps 754 mmHg 87%
    12:00 +10°C° 0 mm 2 mps 754 mmHg 84%
    13:00 +12°C° 0 mm 2 mps 753 mmHg 82%
    14:00 +12°C° 0.1 mm 2 mps 753 mmHg 83%
    15:00 +12°C° 0.1 mm 2 mps 753 mmHg 84%
    16:00 +12°C° 0.1 mm 2 mps 753 mmHg 85%
    17:00 +11°C° 0 mm 1 mps 753 mmHg 88%
    18:00 +10°C° 0 mm 1 mps 754 mmHg 90%
    19:00 +9°C° 0 mm 1 mps 754 mmHg 93%
    20:00 +8°C° 0 mm 1 mps 754 mmHg 94%
    21:00 +8°C° 0 mm 1 mps 754 mmHg 94%
    22:00 +7°C° 0 mm 2 mps 755 mmHg 95%
    23:00 +7°C° 0 mm 2 mps 754 mmHg 95%

    Day after tomorrow, 25 July, Tuesday

    Time Temperature Precipitation Wind Pressure Humidity
    00:00 +7°C° 0 mm 2 mps 754 mmHg 96%
    01:00 +7°C° 0 mm 2 mps 754 mmHg 96%
    02:00 +7°C° 0 mm 2 mps 754 mmHg 96%
    03:00 +6°C° 0 mm 2 mps 754 mmHg 96%
    04:00 +6°C° 0 mm 2 mps 753 mmHg 96%
    05:00 +6°C° 0 mm 2 mps 754 mmHg 96%
    06:00 +6°C° 0 mm 2 mps 754 mmHg 96%
    07:00 +4°C° 0 mm 3 mps 754 mmHg 96%
    08:00 +7°C° 0 mm 3 mps 754 mmHg 92%
    09:00 +7°C° 0 mm 4 mps 754 mmHg 88%
    10:00 +8°C° 0 mm 4 mps 754 mmHg 85%
    11:00 +10°C° 0 mm 4 mps 753 mmHg 82%
    12:00 +11°C° 0 mm 4 mps 752 mmHg 79%
    13:00 +12°C° 0 mm 4 mps 752 mmHg 76%
    14:00 +13°C° 0 mm 4 mps 751 mmHg 74%
    15:00 +14°C° 0 mm 3 mps 751 mmHg 72%
    16:00 +16°C° 0 mm 3 mps 750 mmHg 71%
    17:00 +14°C° 0 mm 3 mps 750 mmHg 72%
    18:00 +13°C° 0 mm 3 mps 750 mmHg 73%
    19:00 +13°C° 0 mm 2 mps 749 mmHg 74%
    20:00 +12°C° 0.1 mm 2 mps 749 mmHg 77%
    21:00 +10°C° 0.1 mm 2 mps 749 mmHg 79%
    22:00 +10°C° 0.1 mm 2 mps 749 mmHg 82%
    23:00 +9°C° 0.1 mm 2 mps 749 mmHg 85%

    26 July, Wednesday

    Time Temperature Precipitation Wind Pressure Humidity
    00:00 +9°C° 0.1 mm 2 mps 749 mmHg 88%
    01:00 +9°C° 0.1 mm 2 mps 749 mmHg 92%
    02:00 +8°C° 0 mm 2 mps 749 mmHg 93%
    03:00 +8°C° 0 mm 2 mps 749 mmHg 95%
    04:00 +8°C° 0 mm 2 mps 749 mmHg 96%
    05:00 +8°C° 0 mm 2 mps 749 mmHg 96%
    06:00 +8°C° 0 mm 2 mps 749 mmHg 97%
    07:00 +8°C° 0 mm 2 mps 750 mmHg 97%
    08:00 +9°C° 0 mm 3 mps 750 mmHg 94%
    09:00 +10°C° 0 mm 4 mps 751 mmHg 90%
    10:00 +9°C° 0 mm 5 mps 751 mmHg 86%
    11:00 +10°C° 0.1 mm 5 mps 751 mmHg 84%
    12:00 +10°C° 0.1 mm 5 mps 751 mmHg 81%
    13:00 +12°C° 0.1 mm 5 mps 751 mmHg 78%
    14:00 +12°C° 0.2 mm 5 mps 751 mmHg 79%
    15:00 +12°C° 0.2 mm 5 mps 750 mmHg 79%
    16:00 +12°C° 0.2 mm 5 mps 750 mmHg 79%
    17:00 +11°C° 0.1 mm 4 mps 751 mmHg 83%
    18:00 +9°C° 0.1 mm 3 mps 751 mmHg 87%
    19:00 +8°C° 0.1 mm 3 mps 752 mmHg 90%
    20:00 +7°C° 0 mm 3 mps 753 mmHg 91%
    21:00 +7°C° 0 mm 3 mps 753 mmHg 92%
    22:00 +5°C° 0 mm 3 mps 754 mmHg 93%
    23:00 +5°C° 0 mm 3 mps 754 mmHg 94%

    27 July, Thursday

    Time Temperature Precipitation Wind Pressure Humidity
    00:00 +5°C° 0 mm 2 mps 754 mmHg 95%
    01:00 +5°C° 0 mm 2 mps 755 mmHg 95%
    02:00 +4°C° 0 mm 2 mps 755 mmHg 95%
    03:00 +4°C° 0 mm 2 mps 755 mmHg 96%
    04:00 +4°C° 0 mm 2 mps 755 mmHg 96%
    05:00 +4°C° 0 mm 1 mps 755 mmHg 96%
    06:00 +4°C° 0 mm 1 mps 755 mmHg 95%
    07:00 +4°C° 0 mm 1 mps 756 mmHg 95%
    08:00 +6°C° 0 mm 1 mps 756 mmHg 91%
    09:00 +7°C° 0 mm 1 mps 756 mmHg 88%
    10:00 +9°C° 0 mm 1 mps 757 mmHg 84%
    11:00 +11°C° 0 mm 1 mps 756 mmHg 76%
    12:00 +12°C° 0 mm 1 mps 756 mmHg 68%
    13:00 +13°C° 0 mm 1 mps 755 mmHg 60%
    14:00 +13°C° 0 mm 2 mps 755 mmHg 63%
    15:00 +13°C° 0 mm 2 mps 754 mmHg 65%
    16:00 +13°C° 0 mm 2 mps 754 mmHg 67%
    17:00 +10°C° 0 mm 2 mps 754 mmHg 70%
    18:00 +9°C° 0 mm 2 mps 754 mmHg 73%
    19:00 +8°C° 0 mm 2 mps 755 mmHg 75%
    20:00 +7°C° 0 mm 3 mps 754 mmHg 77%
    21:00 +7°C° 0 mm 3 mps 754 mmHg 79%
    22:00 +5°C° 0 mm 3 mps 754 mmHg 80%
    23:00 +5°C° 0.4 mm 3 mps 754 mmHg 83%

    28 July, Friday

    Time Temperature Precipitation Wind Pressure Humidity
    00:00 +5°C° 0.4 mm 3 mps 753 mmHg 86%
    01:00 +5°C° 0.4 mm 3 mps 753 mmHg 90%
    02:00 +5°C° 1.1 mm 3 mps 752 mmHg 91%
    03:00 +5°C° 1.1 mm 3 mps 752 mmHg 92%
    04:00 +5°C° 1.1 mm 4 mps 751 mmHg 93%
    05:00 +5°C° 0.9 mm 3 mps 751 mmHg 93%
    06:00 +5°C° 0.9 mm 3 mps 752 mmHg 94%
    07:00 +6°C° 0.9 mm 2 mps 752 mmHg 95%
    08:00 +7°C° 0 mm 2 mps 752 mmHg 93%
    09:00 +8°C° 0 mm 2 mps 752 mmHg 91%
    10:00 +9°C° 0 mm 2 mps 752 mmHg 89%
    11:00 +10°C° 0 mm 2 mps 752 mmHg 86%
    12:00 +12°C° 0 mm 2 mps 752 mmHg 82%
    13:00 +13°C° 0 mm 2 mps 751 mmHg 79%
    14:00 +13°C° 0 mm 2 mps 751 mmHg 79%
    15:00 +13°C° 0 mm 2 mps 751 mmHg 79%
    16:00 +13°C° 0 mm 2 mps 751 mmHg 78%
    17:00 +12°C° 0 mm 2 mps 752 mmHg 83%
    18:00 +9°C° 0 mm 2 mps 752 mmHg 87%
    19:00 +8°C° 0 mm 2 mps 752 mmHg 91%
    20:00 +8°C° 0 mm 3 mps 752 mmHg 93%
    21:00 +7°C° 0 mm 3 mps 752 mmHg 94%
    22:00 +5°C° 0 mm 3 mps 752 mmHg 96%
    23:00 +7°C° 0 mm 3 mps 751 mmHg 96%
    Show more